Time,TemperatureF,DewpointF,PressureIn,WindDirection,WindDirectionDegrees,WindSpeedMPH,WindSpeedGustMPH,Humidity,HourlyPrecipIn,Conditions,Clouds,dailyrainin,SoftwareType,DateUTC
2013-01-15 04:21:00,12.6,-99.9,30.24,North,-999,0.0,0.0,-999,0.00,,,-99.99,FreeWX 2.04,2013-01-15 09:21:00,
2013-01-15 04:26:00,12.4,-99.9,30.24,North,-999,0.0,0.0,-999,0.00,,,-99.99,FreeWX 2.04,2013-01-15 09:26:00,
2013-01-15 04:31:00,12.4,-99.9,30.24,North,-999,0.0,0.0,-999,0.00,,,-99.99,FreeWX 2.04,2013-01-15 09:31:00,
2013-01-15 04:36:00,12.4,-99.9,30.24,North,-999,0.0,0.0,-999,0.00,,,-99.99,FreeWX 2.04,2013-01-15 09:36:00,
2013-01-15 10:21:00,19.8,10.6,30.27,South,176,2.0,3.6,67,0.00,,,-99.99,FreeWX 2.04,2013-01-15 15:21:00,
2013-01-15 10:28:00,19.9,9.0,30.27,South,176,2.0,4.9,62,0.00,,,-99.99,FreeWX 2.04,2013-01-15 15:28:00,
2013-01-15 10:33:00,20.3,8.6,30.27,South,176,2.0,5.8,60,0.00,,,-99.99,FreeWX 2.04,2013-01-15 15:33:00,
2013-01-15 10:38:00,20.5,7.7,30.27,South,176,2.0,7.4,57,0.00,,,-99.99,FreeWX 2.04,2013-01-15 15:38:00,
2013-01-15 10:43:00,20.8,7.7,30.27,South,176,2.0,5.8,56,0.00,,,-99.99,FreeWX 2.04,2013-01-15 15:43:00,
2013-01-15 10:48:00,20.8,6.8,30.27,South,176,2.0,5.4,54,0.00,,,-99.99,FreeWX 2.04,2013-01-15 15:48:00,
2013-01-15 10:53:00,21.2,6.8,30.27,South,176,2.0,4.9,53,0.00,,,-99.99,FreeWX 2.04,2013-01-15 15:53:00,
2013-01-15 10:58:00,21.4,6.1,30.27,South,176,2.0,4.9,51,0.00,,,-99.99,FreeWX 2.04,2013-01-15 15:58:00,
2013-01-15 11:03:00,21.6,5.9,30.27,South,176,2.0,4.5,50,0.00,,,-99.99,FreeWX 2.04,2013-01-15 16:03:00,
2013-01-15 11:08:00,21.9,5.4,30.27,South,176,2.0,4.5,48,0.00,,,-99.99,FreeWX 2.04,2013-01-15 16:08:00,
2013-01-15 11:13:00,22.3,5.5,30.27,South,176,1.0,4.9,48,0.00,,,-99.99,FreeWX 2.04,2013-01-15 16:13:00,
2013-01-15 11:18:00,22.6,5.0,30.27,South,176,1.0,4.9,46,0.00,,,-99.99,FreeWX 2.04,2013-01-15 16:18:00,
2013-01-15 11:23:00,23.0,5.4,30.27,South,176,1.0,4.9,46,0.00,,,-99.99,FreeWX 2.04,2013-01-15 16:23:00,
2013-01-15 11:28:00,23.0,4.8,30.27,South,176,2.0,6.7,45,0.00,,,-99.99,FreeWX 2.04,2013-01-15 16:28:00,
2013-01-15 11:33:00,23.2,4.5,30.27,South,176,2.0,5.8,44,0.00,,,-99.99,FreeWX 2.04,2013-01-15 16:33:00,
2013-01-15 11:38:00,23.7,5.5,30.27,South,176,1.0,4.5,45,0.00,,,-99.99,FreeWX 2.04,2013-01-15 16:38:00,
2013-01-15 11:43:00,23.7,4.5,30.27,South,176,1.0,4.5,43,0.00,,,-99.99,FreeWX 2.04,2013-01-15 16:43:00,
2013-01-15 11:48:00,23.9,4.6,30.27,South,176,1.0,4.0,43,0.00,,,-99.99,FreeWX 2.04,2013-01-15 16:48:00,
2013-01-15 11:53:00,24.4,5.2,30.27,North,-999,0.0,4.0,43,0.00,,,-99.99,FreeWX 2.04,2013-01-15 16:53:00,
2013-01-15 11:58:00,24.6,4.8,30.27,South,176,1.0,5.4,42,0.00,,,-99.99,FreeWX 2.04,2013-01-15 16:58:00,
2013-01-15 12:03:00,24.8,4.5,30.27,South,176,2.0,5.4,41,0.00,,,-99.99,FreeWX 2.04,2013-01-15 17:03:00,
2013-01-15 12:08:00,24.8,2.3,30.27,South,176,2.0,5.8,37,0.00,,,-99.99,FreeWX 2.04,2013-01-15 17:08:00,
2013-01-15 12:13:00,25.0,1.8,30.27,South,176,2.0,6.3,36,0.00,,,-99.99,FreeWX 2.04,2013-01-15 17:13:00,
2013-01-15 12:18:00,25.7,3.6,30.24,South,176,2.0,4.5,38,0.00,,,-99.99,FreeWX 2.04,2013-01-15 17:18:00,
2013-01-15 12:23:00,26.1,3.9,30.24,South,176,1.0,4.5,38,0.00,,,-99.99,FreeWX 2.04,2013-01-15 17:23:00,
2013-01-15 12:28:00,26.2,3.0,30.24,South,176,1.0,4.0,36,0.00,,,-99.99,FreeWX 2.04,2013-01-15 17:28:00,
2013-01-15 12:33:00,26.2,2.3,30.24,South,176,2.0,4.5,35,0.00,,,-99.99,FreeWX 2.04,2013-01-15 17:33:00,
2013-01-15 12:38:00,26.2,1.0,30.24,South,176,2.0,4.9,33,0.00,,,-99.99,FreeWX 2.04,2013-01-15 17:38:00,
2013-01-15 12:43:00,26.2,1.8,30.24,South,176,1.0,4.5,34,0.00,,,-99.99,FreeWX 2.04,2013-01-15 17:43:00,
2013-01-15 12:48:00,26.4,2.5,30.24,North,-999,0.0,4.9,35,0.00,,,-99.99,FreeWX 2.04,2013-01-15 17:48:00,
2013-01-15 12:53:00,26.2,1.8,30.24,South,176,1.0,5.8,34,0.00,,,-99.99,FreeWX 2.04,2013-01-15 17:53:00,
2013-01-15 12:58:00,26.1,0.3,30.24,South,176,2.0,5.8,32,0.00,,,-99.99,FreeWX 2.04,2013-01-15 17:58:00,
2013-01-15 13:03:00,26.2,1.0,30.24,South,176,2.0,5.8,33,0.00,,,-99.99,FreeWX 2.04,2013-01-15 18:03:00,
2013-01-15 13:08:00,26.6,1.4,30.24,South,176,2.0,5.8,33,0.00,,,-99.99,FreeWX 2.04,2013-01-15 18:08:00,
2013-01-15 13:13:00,27.3,2.7,30.24,South,176,1.0,3.6,34,0.00,,,-99.99,FreeWX 2.04,2013-01-15 18:13:00,
2013-01-15 13:18:00,28.0,2.7,30.21,North,-999,0.0,4.5,33,0.00,,,-99.99,FreeWX 2.04,2013-01-15 18:18:00,
2013-01-15 13:23:00,28.0,2.7,30.21,South,176,2.0,6.3,33,0.00,,,-99.99,FreeWX 2.04,2013-01-15 18:23:00,
2013-01-15 13:28:00,28.2,2.8,30.21,South,176,2.0,5.8,33,0.00,,,-99.99,FreeWX 2.04,2013-01-15 18:28:00,
2013-01-15 13:33:00,28.2,2.1,30.21,South,176,2.0,4.9,32,0.00,,,-99.99,FreeWX 2.04,2013-01-15 18:33:00,
2013-01-15 13:43:00,28.6,3.2,30.21,South,176,2.0,4.0,33,0.00,,,-99.99,FreeWX 2.04,2013-01-15 18:43:00,
2013-01-15 13:48:00,28.8,2.7,30.18,South,176,1.0,6.3,32,0.00,,,-99.99,FreeWX 2.04,2013-01-15 18:48:00,
2013-01-15 13:53:00,29.1,3.0,30.18,South,176,2.0,4.9,32,0.00,,,-99.99,FreeWX 2.04,2013-01-15 18:53:00,
2013-01-15 13:58:00,29.7,3.4,30.18,South,176,2.0,4.9,32,0.00,,,-99.99,FreeWX 2.04,2013-01-15 18:58:00,
2013-01-15 14:03:00,29.8,3.6,30.18,South,176,2.0,5.4,32,0.00,,,-99.99,FreeWX 2.04,2013-01-15 19:03:00,
2013-01-15 14:08:00,30.2,3.9,30.18,North,-999,0.0,3.6,32,0.00,,,-99.99,FreeWX 2.04,2013-01-15 19:08:00,
2013-01-15 14:13:00,30.0,3.0,30.18,South,176,1.0,5.4,31,0.00,,,-99.99,FreeWX 2.04,2013-01-15 19:13:00,
2013-01-15 14:18:00,29.7,2.8,30.18,South,176,2.0,5.8,31,0.00,,,-99.99,FreeWX 2.04,2013-01-15 19:18:00,
2013-01-15 14:23:00,28.9,2.1,30.18,South,176,2.0,6.3,31,0.00,,,-99.99,FreeWX 2.04,2013-01-15 19:23:00,
2013-01-15 14:28:00,28.6,1.8,30.18,South,176,3.0,6.3,31,0.00,,,-99.99,FreeWX 2.04,2013-01-15 19:28:00,
2013-01-15 14:33:00,28.4,1.6,30.18,South,176,3.0,6.7,31,0.00,,,-99.99,FreeWX 2.04,2013-01-15 19:33:00,
2013-01-15 14:38:00,28.4,1.6,30.18,South,176,1.0,4.9,31,0.00,,,-99.99,FreeWX 2.04,2013-01-15 19:38:00,
2013-01-15 14:43:00,28.2,1.6,30.18,South,176,1.0,4.9,31,0.00,,,-99.99,FreeWX 2.04,2013-01-15 19:43:00,
2013-01-15 14:48:00,27.9,1.2,30.18,South,176,1.0,4.9,31,0.00,,,-99.99,FreeWX 2.04,2013-01-15 19:48:00,
2013-01-15 14:53:00,27.9,1.2,30.18,South,176,1.0,3.6,31,0.00,,,-99.99,FreeWX 2.04,2013-01-15 19:53:00,
2013-01-15 14:58:00,27.9,1.2,30.18,South,176,1.0,6.7,31,0.00,,,-99.99,FreeWX 2.04,2013-01-15 19:58:00,
2013-01-15 15:03:00,27.7,1.0,30.18,South,176,2.0,5.4,31,0.00,,,-99.99,FreeWX 2.04,2013-01-15 20:03:00,
2013-01-15 15:08:00,27.9,1.2,30.18,South,176,1.0,4.9,31,0.00,,,-99.99,FreeWX 2.04,2013-01-15 20:08:00,
2013-01-15 15:13:00,27.7,1.0,30.18,South,176,2.0,5.4,31,0.00,,,-99.99,FreeWX 2.04,2013-01-15 20:13:00,
2013-01-15 15:18:00,27.3,1.4,30.18,South,176,2.0,6.7,32,0.00,,,-99.99,FreeWX 2.04,2013-01-15 20:18:00,
2013-01-15 15:23:00,27.3,1.4,30.18,South,176,2.0,3.6,32,0.00,,,-99.99,FreeWX 2.04,2013-01-15 20:23:00,
2013-01-15 15:28:00,27.1,1.2,30.18,South,176,2.0,6.7,32,0.00,,,-99.99,FreeWX 2.04,2013-01-15 20:28:00,
2013-01-15 15:33:00,27.0,1.0,30.18,South,176,2.0,5.8,32,0.00,,,-99.99,FreeWX 2.04,2013-01-15 20:33:00,
2013-01-15 15:38:00,27.0,1.0,30.18,South,176,2.0,7.8,32,0.00,,,-99.99,FreeWX 2.04,2013-01-15 20:38:00,
2013-01-15 15:43:00,26.8,0.9,30.18,South,176,1.0,4.0,32,0.00,,,-99.99,FreeWX 2.04,2013-01-15 20:43:00,
2013-01-15 15:48:00,26.8,0.9,30.18,South,176,1.0,4.5,32,0.00,,,-99.99,FreeWX 2.04,2013-01-15 20:48:00,
2013-01-15 15:58:00,26.4,1.2,30.18,South,176,2.0,4.5,33,0.00,,,-99.99,FreeWX 2.04,2013-01-15 20:58:00,
2013-01-15 16:03:00,26.1,0.9,30.18,South,176,1.0,4.5,33,0.00,,,-99.99,FreeWX 2.04,2013-01-15 21:03:00,
2013-01-15 16:08:00,25.7,1.2,30.18,North,-999,0.0,3.6,34,0.00,,,-99.99,FreeWX 2.04,2013-01-15 21:08:00,
2013-01-15 16:13:00,25.5,1.8,30.18,North,-999,0.0,6.3,35,0.00,,,-99.99,FreeWX 2.04,2013-01-15 21:13:00,
2013-01-15 16:18:00,25.2,1.4,30.18,South,176,1.0,4.5,35,0.00,,,-99.99,FreeWX 2.04,2013-01-15 21:18:00,
2013-01-15 16:23:00,24.8,1.0,30.18,South,176,1.0,5.8,35,0.00,,,-99.99,FreeWX 2.04,2013-01-15 21:23:00,
2013-01-15 16:28:00,24.6,0.9,30.18,South,176,1.0,5.8,35,0.00,,,-99.99,FreeWX 2.04,2013-01-15 21:28:00,
2013-01-15 16:33:00,24.3,0.7,30.18,South,176,1.0,4.0,35,0.00,,,-99.99,FreeWX 2.04,2013-01-15 21:33:00,
2013-01-15 16:38:00,23.9,0.9,30.18,North,-999,0.0,0.0,36,0.00,,,-99.99,FreeWX 2.04,2013-01-15 21:38:00,
2013-01-15 16:43:00,23.5,0.5,30.18,North,-999,0.0,4.0,36,0.00,,,-99.99,FreeWX 2.04,2013-01-15 21:43:00,
2013-01-15 16:48:00,23.4,0.3,30.18,North,-999,0.0,4.9,36,0.00,,,-99.99,FreeWX 2.04,2013-01-15 21:48:00,
2013-01-15 16:53:00,23.0,0.7,30.18,North,-999,0.0,4.9,37,0.00,,,-99.99,FreeWX 2.04,2013-01-15 21:53:00,
2013-01-15 16:58:00,22.8,0.5,30.18,North,-999,0.0,0.0,37,0.00,,,-99.99,FreeWX 2.04,2013-01-15 21:58:00,
2013-01-15 17:03:00,22.6,0.9,30.18,North,-999,0.0,4.5,38,0.00,,,-99.99,FreeWX 2.04,2013-01-15 22:03:00,
2013-01-15 17:08:00,22.5,0.7,30.18,South,176,1.0,4.0,38,0.00,,,-99.99,FreeWX 2.04,2013-01-15 22:08:00,
2013-01-15 17:13:00,22.3,0.5,30.18,South,176,1.0,4.5,38,0.00,,,-99.99,FreeWX 2.04,2013-01-15 22:13:00,
2013-01-15 17:18:00,21.9,0.9,30.15,North,-999,0.0,0.0,39,0.00,,,-99.99,FreeWX 2.04,2013-01-15 22:18:00,
2013-01-15 17:23:00,21.7,0.7,30.15,North,-999,0.0,0.0,39,0.00,,,-99.99,FreeWX 2.04,2013-01-15 22:23:00,
2013-01-15 17:28:00,21.4,0.3,30.15,North,-999,0.0,3.6,39,0.00,,,-99.99,FreeWX 2.04,2013-01-15 22:28:00,
2013-01-15 17:33:00,21.4,0.9,30.15,North,-999,0.0,0.0,40,0.00,,,-99.99,FreeWX 2.04,2013-01-15 22:33:00,
2013-01-15 17:38:00,21.0,0.5,30.15,North,-999,0.0,0.0,40,0.00,,,-99.99,FreeWX 2.04,2013-01-15 22:38:00,
2013-01-15 17:43:00,20.7,0.1,30.15,North,-999,0.0,0.0,40,0.00,,,-99.99,FreeWX 2.04,2013-01-15 22:43:00,
2013-01-15 17:48:00,20.5,0.0,30.15,North,-999,0.0,0.0,40,0.00,,,-99.99,FreeWX 2.04,2013-01-15 22:48:00,
2013-01-15 17:53:00,20.1,0.3,30.15,North,-999,0.0,0.0,41,0.00,,,-99.99,FreeWX 2.04,2013-01-15 22:53:00,
2013-01-15 17:58:00,19.9,0.1,30.15,North,-999,0.0,0.0,41,0.00,,,-99.99,FreeWX 2.04,2013-01-15 22:58:00,
2013-01-15 18:03:00,19.9,0.5,30.15,North,-999,0.0,0.0,42,0.00,,,-99.99,FreeWX 2.04,2013-01-15 23:03:00,
2013-01-15 18:08:00,19.9,1.0,30.15,North,-999,0.0,3.1,43,0.00,,,-99.99,FreeWX 2.04,2013-01-15 23:08:00,
2013-01-15 18:13:00,19.8,0.9,30.15,North,-999,0.0,0.0,43,0.00,,,-99.99,FreeWX 2.04,2013-01-15 23:13:00,
2013-01-15 18:18:00,19.6,0.7,30.15,North,-999,0.0,0.0,43,0.00,,,-99.99,FreeWX 2.04,2013-01-15 23:18:00,
2013-01-15 18:23:00,19.4,0.7,30.15,North,-999,0.0,0.0,43,0.00,,,-99.99,FreeWX 2.04,2013-01-15 23:23:00,
2013-01-15 18:28:00,19.4,0.7,30.15,North,-999,0.0,5.8,43,0.00,,,-99.99,FreeWX 2.04,2013-01-15 23:28:00,
2013-01-15 18:33:00,19.4,0.7,30.15,North,-999,0.0,0.0,43,0.00,,,-99.99,FreeWX 2.04,2013-01-15 23:33:00,
2013-01-15 18:38:00,19.2,0.9,30.15,North,-999,0.0,0.0,44,0.00,,,-99.99,FreeWX 2.04,2013-01-15 23:38:00,
2013-01-15 18:43:00,19.2,0.9,30.15,North,-999,0.0,0.0,44,0.00,,,-99.99,FreeWX 2.04,2013-01-15 23:43:00,
2013-01-15 18:48:00,19.0,0.7,30.15,North,-999,0.0,0.0,44,0.00,,,-99.99,FreeWX 2.04,2013-01-15 23:48:00,
2013-01-15 18:53:00,19.0,0.7,30.15,North,-999,0.0,4.0,44,0.00,,,-99.99,FreeWX 2.04,2013-01-15 23:53:00,
2013-01-15 18:58:00,18.9,0.7,30.15,North,-999,0.0,0.0,44,0.00,,,-99.99,FreeWX 2.04,2013-01-15 23:58:00,
2013-01-15 19:03:00,18.9,0.7,30.12,North,-999,0.0,0.0,44,0.00,,,-99.99,FreeWX 2.04,2013-01-16 00:03:00,
2013-01-15 19:08:00,18.9,0.7,30.12,North,-999,0.0,2.7,44,0.00,,,-99.99,FreeWX 2.04,2013-01-16 00:08:00,
2013-01-15 19:13:00,18.7,0.9,30.12,North,-999,0.0,0.0,45,0.00,,,-99.99,FreeWX 2.04,2013-01-16 00:13:00,
2013-01-15 19:18:00,18.5,0.7,30.15,North,-999,0.0,0.0,45,0.00,,,-99.99,FreeWX 2.04,2013-01-16 00:18:00,
2013-01-15 19:23:00,18.5,0.7,30.15,North,-999,0.0,0.0,45,0.00,,,-99.99,FreeWX 2.04,2013-01-16 00:23:00,
2013-01-15 19:28:00,18.3,1.0,30.15,North,-999,0.0,0.0,46,0.00,,,-99.99,FreeWX 2.04,2013-01-16 00:28:00,
2013-01-15 19:33:00,18.3,1.0,30.15,North,-999,0.0,0.0,46,0.00,,,-99.99,FreeWX 2.04,2013-01-16 00:33:00,
2013-01-15 19:38:00,18.1,0.9,30.15,North,-999,0.0,0.0,46,0.00,,,-99.99,FreeWX 2.04,2013-01-16 00:38:00,
2013-01-15 19:43:00,18.1,0.9,30.15,North,-999,0.0,0.0,46,0.00,,,-99.99,FreeWX 2.04,2013-01-16 00:43:00,
2013-01-15 19:48:00,18.1,1.4,30.12,North,-999,0.0,0.0,47,0.00,,,-99.99,FreeWX 2.04,2013-01-16 00:48:00,
2013-01-15 19:53:00,18.0,1.2,30.12,North,-999,0.0,0.0,47,0.00,,,-99.99,FreeWX 2.04,2013-01-16 00:53:00,
2013-01-15 19:58:00,18.0,1.6,30.12,North,-999,0.0,0.0,48,0.00,,,-99.99,FreeWX 2.04,2013-01-16 00:58:00,
2013-01-15 20:03:00,17.8,1.4,30.12,North,-999,0.0,0.0,48,0.00,,,-99.99,FreeWX 2.04,2013-01-16 01:03:00,
2013-01-15 20:08:00,17.6,1.8,30.12,North,-999,0.0,0.0,49,0.00,,,-99.99,FreeWX 2.04,2013-01-16 01:08:00,
2013-01-15 20:13:00,17.4,1.6,30.12,North,-999,0.0,0.0,49,0.00,,,-99.99,FreeWX 2.04,2013-01-16 01:13:00,
2013-01-15 20:18:00,17.4,1.9,30.12,North,-999,0.0,0.0,50,0.00,,,-99.99,FreeWX 2.04,2013-01-16 01:18:00,
2013-01-15 20:23:00,17.2,1.8,30.12,North,-999,0.0,0.0,50,0.00,,,-99.99,FreeWX 2.04,2013-01-16 01:23:00,
2013-01-15 20:28:00,16.9,1.9,30.12,North,-999,0.0,0.0,51,0.00,,,-99.99,FreeWX 2.04,2013-01-16 01:28:00,
2013-01-15 20:34:00,16.7,1.8,30.12,North,-999,0.0,0.0,51,0.00,,,-99.99,FreeWX 2.04,2013-01-16 01:34:00,
2013-01-15 20:39:00,16.9,2.3,30.12,North,-999,0.0,0.0,52,0.00,,,-99.99,FreeWX 2.04,2013-01-16 01:39:00,
2013-01-15 20:44:00,16.9,2.7,30.12,North,-999,0.0,0.0,53,0.00,,,-99.99,FreeWX 2.04,2013-01-16 01:44:00,
2013-01-15 20:49:00,16.9,2.7,30.12,North,-999,0.0,0.0,53,0.00,,,-99.99,FreeWX 2.04,2013-01-16 01:49:00,
2013-01-15 20:54:00,17.2,3.6,30.12,North,-999,0.0,0.0,54,0.00,,,-99.99,FreeWX 2.04,2013-01-16 01:54:00,
2013-01-15 20:59:00,17.4,4.1,30.12,North,-999,0.0,0.0,55,0.00,,,-99.99,FreeWX 2.04,2013-01-16 01:59:00,
2013-01-15 21:04:00,17.6,4.3,30.09,North,-999,0.0,0.0,55,0.00,,,-99.99,FreeWX 2.04,2013-01-16 02:04:00,
2013-01-15 21:09:00,17.4,4.1,30.09,North,-999,0.0,0.0,55,0.00,,,-99.99,FreeWX 2.04,2013-01-16 02:09:00,
2013-01-15 21:14:00,17.4,4.1,30.09,North,-999,0.0,0.0,55,0.00,,,-99.99,FreeWX 2.04,2013-01-16 02:14:00,